TimeAEST,TemperatureF,Dew PointF,Humidity,Sea Level PressureIn,VisibilityMPH,Wind Direction,Wind SpeedMPH,Gust SpeedMPH,PrecipitationIn,Events,Conditions,WindDirDegrees,DateUTC
12:00 AM,58,56,89,29.73,,WSW,6.9,,,,,240,2013-09-17 14:00:00
12:00 AM,59.0,55.4,88,29.71,6.2,WSW,6.9,-,N/A,,Unknown,240,2013-09-17 14:00:00
12:30 AM,57.2,53.6,88,29.71,6.2,SSW,4.6,-,N/A,,Unknown,200,2013-09-17 14:30:00
1:00 AM,57.2,55.4,94,29.71,6.2,Calm,Calm,-,N/A,,Unknown,0,2013-09-17 15:00:00
1:30 AM,55.4,53.6,94,29.71,6.2,West,3.5,-,N/A,,Unknown,270,2013-09-17 15:30:00
2:00 AM,55.4,53.6,94,29.71,6.2,West,5.8,-,N/A,,Unknown,260,2013-09-17 16:00:00
2:30 AM,55.4,53.6,94,29.71,6.2,SW,2.3,-,N/A,,Unknown,220,2013-09-17 16:30:00
3:00 AM,54,51,87,29.73,,WSW,2.3,,,,,250,2013-09-17 17:00:00
3:00 AM,53.6,51.8,94,29.71,6.2,WSW,2.3,-,N/A,,Unknown,250,2013-09-17 17:00:00
3:30 AM,55.4,53.6,94,29.71,6.2,SSW,3.5,-,N/A,,Unknown,210,2013-09-17 17:30:00
4:00 AM,53.6,51.8,94,29.74,6.2,SW,3.5,-,N/A,,Unknown,230,2013-09-17 18:00:00
4:30 AM,53.6,50.0,88,29.74,6.2,Calm,Calm,-,N/A,,Unknown,0,2013-09-17 18:30:00
5:00 AM,51.8,50.0,94,29.74,6.2,SW,1.2,-,N/A,,Unknown,220,2013-09-17 19:00:00
5:30 AM,53.6,51.8,94,29.77,6.2,SW,2.3,-,N/A,,Unknown,230,2013-09-17 19:30:00
6:00 AM,53,51,92,29.78,,Calm,Calm,,,,,,2013-09-17 20:00:00
6:00 AM,53.6,51.8,94,29.77,6.2,Calm,Calm,-,N/A,,Unknown,0,2013-09-17 20:00:00
6:30 AM,55.4,51.8,88,29.77,6.2,SW,2.3,-,N/A,,Unknown,220,2013-09-17 20:30:00
7:00 AM,59.0,53.6,82,29.80,6.2,NW,1.2,-,N/A,,Unknown,310,2013-09-17 21:00:00
7:30 AM,62.6,55.4,77,29.80,6.2,WSW,1.2,-,N/A,,Unknown,240,2013-09-17 21:30:00
8:00 AM,66.2,57.2,73,29.80,6.2,NW,2.3,-,N/A,,Unknown,310,2013-09-17 22:00:00
8:30 AM,71.6,55.4,57,29.80,6.2,NNW,4.6,-,N/A,,Unknown,330,2013-09-17 22:30:00
9:00 AM,74,53,37,29.82,,NNW,6.9,,,,,330,2013-09-17 23:00:00
9:00 AM,73.4,53.6,50,29.80,6.2,NNW,6.9,-,N/A,,Unknown,330,2013-09-17 23:00:00
9:30 AM,73.4,53.6,50,29.80,6.2,North,12.7,-,N/A,,Unknown,360,2013-09-17 23:30:00
10:00 AM,73.4,59.0,61,29.80,6.2,North,13.8,-,N/A,,Unknown,10,2013-09-18 00:00:00
10:30 AM,77.0,46.4,34,29.77,6.2,NW,11.5,-,N/A,,Unknown,320,2013-09-18 00:30:00
11:00 AM,77.0,46.4,34,29.77,6.2,NW,11.5,-,N/A,,Unknown,310,2013-09-18 01:00:00
11:30 AM,78.8,48.2,34,29.77,6.2,NW,15.0,-,N/A,,Unknown,310,2013-09-18 01:30:00
12:00 PM,79,49,25,29.76,,NW,11.5,,,,,310,2013-09-18 02:00:00
12:00 PM,78.8,50.0,36,29.74,6.2,NW,11.5,-,N/A,,Unknown,310,2013-09-18 02:00:00
12:30 PM,78.8,48.2,34,29.74,6.2,WNW,12.7,-,N/A,,Unknown,300,2013-09-18 02:30:00
1:00 PM,80.6,48.2,32,29.71,6.2,NW,13.8,-,N/A,,Unknown,320,2013-09-18 03:00:00
1:30 PM,80.6,46.4,30,29.71,6.2,WNW,12.7,-,N/A,,Unknown,300,2013-09-18 03:30:00
2:00 PM,80.6,48.2,32,29.71,6.2,NW,11.5,-,N/A,,Unknown,310,2013-09-18 04:00:00
2:30 PM,82.4,48.2,30,29.68,6.2,NW,11.5,-,N/A,,Unknown,320,2013-09-18 04:30:00
3:00 PM,82,44,17,29.70,,WNW,11.5,,,,,290,2013-09-18 05:00:00
3:00 PM,82.4,44.6,26,29.68,6.2,WNW,11.5,-,N/A,,Unknown,290,2013-09-18 05:00:00
3:30 PM,82.4,44.6,26,29.68,6.2,WNW,13.8,-,N/A,,Unknown,300,2013-09-18 05:30:00
4:00 PM,82.4,46.4,28,29.71,6.2,WNW,12.7,-,N/A,,Unknown,300,2013-09-18 06:00:00
4:30 PM,80.6,44.6,28,29.71,6.2,NW,12.7,-,N/A,,Unknown,310,2013-09-18 06:30:00
5:00 PM,78.8,44.6,30,29.71,6.2,NW,9.2,-,N/A,,Unknown,310,2013-09-18 07:00:00
5:30 PM,75.2,46.4,36,29.71,6.2,NNW,6.9,-,N/A,,Unknown,330,2013-09-18 07:30:00
6:00 PM,74,46,26,29.74,,NNW,6.9,,,,,330,2013-09-18 08:00:00
6:00 PM,73.4,46.4,38,29.74,6.2,NNW,6.9,-,N/A,,Unknown,330,2013-09-18 08:00:00
6:30 PM,71.6,59.0,64,29.74,6.2,North,11.5,-,N/A,,Unknown,350,2013-09-18 08:30:00
7:00 PM,69.8,59.0,68,29.77,6.2,North,11.5,-,N/A,,Unknown,350,2013-09-18 09:00:00
7:30 PM,71.6,59.0,64,29.77,6.2,NNW,10.4,-,N/A,,Unknown,340,2013-09-18 09:30:00
8:00 PM,66.2,57.2,73,29.80,6.2,West,5.8,-,N/A,,Unknown,260,2013-09-18 10:00:00
8:30 PM,62.6,55.4,77,29.80,6.2,SW,3.5,-,N/A,,Unknown,230,2013-09-18 10:30:00
9:00 PM,62,56,77,29.82,,SW,3.5,,,,,230,2013-09-18 11:00:00
9:00 PM,62.6,57.2,82,29.80,6.2,SW,3.5,-,N/A,,Unknown,230,2013-09-18 11:00:00
9:30 PM,60.8,55.4,82,29.83,6.2,SSW,1.2,-,N/A,,Unknown,210,2013-09-18 11:30:00
10:00 PM,60.8,57.2,88,29.83,6.2,West,4.6,-,N/A,,Unknown,260,2013-09-18 12:00:00
10:30 PM,66.2,59.0,78,29.83,6.2,NW,8.1,-,N/A,,Unknown,320,2013-09-18 12:30:00
11:00 PM,66.2,60.8,83,29.83,6.2,NW,9.2,-,N/A,,Unknown,320,2013-09-18 13:00:00
11:30 PM,68.0,60.8,78,29.80,6.2,NW,9.2,-,N/A,,Unknown,320,2013-09-18 13:30:00